Location: Brookfield Center
(41.2406°N, 80.5579°W)
Time: 18:19:51
(UTC+00:00)

Cosmos 1626 - Pass Details

Date: 18 January 2020
Orbit: 492 x 495 km, 82.5° (Epoch: 27 February)

Event Time Altitude Azimuth Distance (km) Brightness Sun altitude
Exits shadow 11:39:21 13° 249° (WSW) 1,521 4.1 -12.2°
Drops below altitude 10° 11:40:11 10° 237° (WSW) 1,691 4.4 -12.0°
Sets 11:42:59 0° 214° (SSW) 2,566 5.6 -11.5°
